Time,TemperatureF,DewpointF,PressureIn,WindDirection,WindDirectionDegrees,WindSpeedMPH,WindSpeedGustMPH,Humidity,HourlyPrecipIn,Conditions,Clouds,dailyrainin,SoftwareType,DateUTC
2013-09-13 00:22:00,51.0,-99.9,-100.00,North,-999,-999.0,-999.0,-999,0.00,,,0.02,,2013-09-13 06:22:00,
2013-09-13 00:32:00,51.0,-99.9,-100.00,North,-999,-999.0,-999.0,-999,0.00,,,0.02,,2013-09-13 06:32:00,
2013-09-13 00:42:00,51.0,-99.9,-100.00,North,-999,-999.0,-999.0,-999,0.00,,,0.02,,2013-09-13 06:42:00,
2013-09-13 01:22:00,50.0,-99.9,-100.00,North,-999,-999.0,-999.0,-999,0.00,,,0.02,,2013-09-13 07:22:00,
2013-09-13 01:34:00,50.0,-99.9,-100.00,North,-999,-999.0,-999.0,-999,0.00,,,0.02,,2013-09-13 07:34:00,
2013-09-13 01:43:00,50.0,-99.9,-100.00,North,-999,-999.0,-999.0,-999,0.00,,,0.02,,2013-09-13 07:43:00,
2013-09-13 02:22:00,50.0,-99.9,-100.00,North,-999,-999.0,-999.0,-999,0.00,,,0.02,,2013-09-13 08:22:00,
2013-09-13 02:32:00,50.0,-99.9,-100.00,North,-999,-999.0,-999.0,-999,0.00,,,0.02,,2013-09-13 08:32:00,
2013-09-13 02:42:00,50.0,-99.9,-100.00,North,-999,-999.0,-999.0,-999,0.00,,,0.02,,2013-09-13 08:42:00,
2013-09-13 04:23:00,46.0,-99.9,-100.00,North,-999,-999.0,-999.0,-999,-99.99,,,0.02,,2013-09-13 10:23:00,
2013-09-13 04:33:00,46.0,-99.9,-100.00,North,-999,-999.0,-999.0,-999,-99.99,,,0.02,,2013-09-13 10:33:00,
2013-09-13 04:42:00,46.0,-99.9,-100.00,North,-999,-999.0,-999.0,-999,-99.99,,,0.02,,2013-09-13 10:42:00,
2013-09-13 05:22:00,45.0,-99.9,-100.00,North,-999,-999.0,-999.0,-999,0.00,,,0.02,,2013-09-13 11:22:00,
2013-09-13 05:33:00,45.0,-99.9,-100.00,North,-999,-999.0,-999.0,-999,0.00,,,0.02,,2013-09-13 11:33:00,
2013-09-13 05:43:00,45.0,-99.9,-100.00,North,-999,-999.0,-999.0,-999,0.00,,,0.02,,2013-09-13 11:43:00,
2013-09-13 06:22:00,43.0,-99.9,-100.00,North,-999,-999.0,-999.0,-999,0.00,,,0.02,,2013-09-13 12:22:00,
2013-09-13 06:32:00,43.0,-99.9,-100.00,North,-999,-999.0,-999.0,-999,0.00,,,0.02,,2013-09-13 12:32:00,
2013-09-13 06:42:00,43.0,-99.9,-100.00,North,-999,-999.0,-999.0,-999,0.00,,,0.02,,2013-09-13 12:42:00,
2013-09-13 07:22:00,43.0,-99.9,-100.00,North,-999,-999.0,-999.0,-999,0.00,,,0.02,,2013-09-13 13:22:00,
2013-09-13 07:32:00,43.0,-99.9,-100.00,North,-999,-999.0,-999.0,-999,0.00,,,0.02,,2013-09-13 13:32:00,
2013-09-13 07:42:00,43.0,-99.9,-100.00,North,-999,-999.0,-999.0,-999,0.00,,,0.02,,2013-09-13 13:42:00,
2013-09-13 08:22:00,45.0,-99.9,-100.00,North,-999,-999.0,-999.0,-999,0.00,,,-99.99,,2013-09-13 14:22:00,
2013-09-13 08:32:00,45.0,-99.9,-100.00,North,-999,-999.0,-999.0,-999,0.00,,,-99.99,,2013-09-13 14:32:00,
2013-09-13 09:44:00,48.0,-99.9,-100.00,North,-999,-999.0,-999.0,-999,0.00,,,0.02,,2013-09-13 15:44:00,
2013-09-13 10:24:00,50.0,-99.9,-100.00,North,-999,-999.0,-999.0,-999,0.00,,,0.02,,2013-09-13 16:24:00,
2013-09-13 10:33:00,50.0,-99.9,-100.00,North,-999,-999.0,-999.0,-999,0.00,,,0.02,,2013-09-13 16:33:00,
2013-09-13 10:43:00,50.0,-99.9,-100.00,North,-999,-999.0,-999.0,-999,0.00,,,0.02,,2013-09-13 16:43:00,
2013-09-13 11:24:00,56.0,-99.9,-100.00,North,-999,-999.0,-999.0,-999,0.00,,,0.02,,2013-09-13 17:24:00,
2013-09-13 11:34:00,56.0,-99.9,-100.00,North,-999,-999.0,-999.0,-999,0.00,,,0.02,,2013-09-13 17:34:00,
2013-09-13 11:44:00,56.0,-99.9,-100.00,North,-999,-999.0,-999.0,-999,0.00,,,0.02,,2013-09-13 17:44:00,
2013-09-13 12:23:00,63.0,-99.9,-100.00,North,-999,-999.0,-999.0,-999,0.00,,,0.01,,2013-09-13 18:23:00,
2013-09-13 12:32:00,63.0,-99.9,-100.00,North,-999,-999.0,-999.0,-999,0.00,,,0.01,,2013-09-13 18:32:00,
2013-09-13 12:42:00,63.0,-99.9,-100.00,North,-999,-999.0,-999.0,-999,0.00,,,0.01,,2013-09-13 18:42:00,
2013-09-13 13:43:00,70.0,-99.9,-100.00,North,-999,-999.0,-999.0,-999,0.00,,,0.01,,2013-09-13 19:43:00,
2013-09-13 14:22:00,69.0,-99.9,-100.00,North,-999,-999.0,-999.0,-999,0.00,,,0.00,,2013-09-13 20:22:00,
2013-09-13 14:32:00,69.0,-99.9,-100.00,North,-999,-999.0,-999.0,-999,0.00,,,0.00,,2013-09-13 20:32:00,
2013-09-13 14:43:00,69.0,-99.9,-100.00,North,-999,-999.0,-999.0,-999,0.00,,,0.00,,2013-09-13 20:43:00,
2013-09-13 14:45:00,73.0,-99.9,-100.00,North,-999,-999.0,-999.0,-999,0.00,,,0.00,,2013-09-13 20:45:00,
2013-09-13 15:22:00,73.0,-99.9,-100.00,North,-999,-999.0,-999.0,-999,0.00,,,0.00,,2013-09-13 21:22:00,
2013-09-13 15:34:00,73.0,-99.9,-100.00,North,-999,-999.0,-999.0,-999,0.00,,,0.00,,2013-09-13 21:34:00,
2013-09-13 16:24:00,73.0,-99.9,-100.00,North,-999,-999.0,-999.0,-999,0.00,,,0.00,,2013-09-13 22:24:00,
2013-09-13 16:33:00,73.0,-99.9,-100.00,North,-999,-999.0,-999.0,-999,0.00,,,0.00,,2013-09-13 22:33:00,
2013-09-13 16:43:00,73.0,-99.9,-100.00,North,-999,-999.0,-999.0,-999,0.00,,,0.00,,2013-09-13 22:43:00,
2013-09-13 17:22:00,69.0,-99.9,-100.00,North,-999,-999.0,-999.0,-999,0.00,,,0.00,,2013-09-13 23:22:00,
2013-09-13 17:34:00,69.0,-99.9,-100.00,North,-999,-999.0,-999.0,-999,0.00,,,0.00,,2013-09-13 23:34:00,
2013-09-13 17:43:00,69.0,-99.9,-100.00,North,-999,-999.0,-999.0,-999,0.00,,,0.00,,2013-09-13 23:43:00,
2013-09-13 18:22:00,67.0,-99.9,-100.00,North,-999,-999.0,-999.0,-999,0.00,,,0.00,,2013-09-14 00:22:00,
2013-09-13 18:32:00,67.0,-99.9,-100.00,North,-999,-999.0,-999.0,-999,0.00,,,0.00,,2013-09-14 00:32:00,
2013-09-13 18:42:00,67.0,-99.9,-100.00,North,-999,-999.0,-999.0,-999,0.00,,,0.00,,2013-09-14 00:42:00,
2013-09-13 19:22:00,62.0,-99.9,-100.00,North,-999,-999.0,-999.0,-999,0.00,,,0.00,,2013-09-14 01:22:00,
2013-09-13 19:33:00,62.0,-99.9,-100.00,North,-999,-999.0,-999.0,-999,0.00,,,0.00,,2013-09-14 01:33:00,
2013-09-13 19:42:00,62.0,-99.9,-100.00,North,-999,-999.0,-999.0,-999,0.00,,,0.00,,2013-09-14 01:42:00,
2013-09-13 20:22:00,58.0,-99.9,-100.00,North,-999,-999.0,-999.0,-999,0.00,,,0.00,,2013-09-14 02:22:00,
2013-09-13 20:33:00,58.0,-99.9,-100.00,North,-999,-999.0,-999.0,-999,0.00,,,0.00,,2013-09-14 02:33:00,
2013-09-13 20:42:00,58.0,-99.9,-100.00,North,-999,-999.0,-999.0,-999,0.00,,,0.00,,2013-09-14 02:42:00,
2013-09-13 20:45:00,56.0,-99.9,-100.00,North,-999,-999.0,-999.0,-999,0.00,,,0.00,,2013-09-14 02:45:00,
2013-09-13 21:22:00,56.0,-99.9,-100.00,North,-999,-999.0,-999.0,-999,0.00,,,0.00,,2013-09-14 03:22:00,
2013-09-13 21:34:00,56.0,-99.9,-100.00,North,-999,-999.0,-999.0,-999,0.00,,,0.00,,2013-09-14 03:34:00,
2013-09-13 22:24:00,51.0,-99.9,-100.00,North,-999,-999.0,-999.0,-999,0.01,,,0.01,,2013-09-14 04:24:00,
2013-09-13 22:34:00,51.0,-99.9,-100.00,North,-999,-999.0,-999.0,-999,0.01,,,0.01,,2013-09-14 04:34:00,
2013-09-13 22:44:00,51.0,-99.9,-100.00,North,-999,-999.0,-999.0,-999,0.01,,,0.01,,2013-09-14 04:44:00,
2013-09-13 23:23:00,51.0,-99.9,-100.00,North,-999,-999.0,-999.0,-999,0.18,,,0.19,,2013-09-14 05:23:00,
2013-09-13 23:34:00,51.0,-99.9,-100.00,North,-999,-999.0,-999.0,-999,0.18,,,0.19,,2013-09-14 05:34:00,
2013-09-13 23:43:00,51.0,-99.9,-100.00,North,-999,-999.0,-999.0,-999,0.18,,,0.19,,2013-09-14 05:43:00,